Onweer radar Meer informatie blitzortung!


Regen radar Meer informatie rain snow radar


Bezoek onze andere website:

Template documentation
and downloads

And another site



15 daagse weersverwachting Ballina (IE)

  • Overzicht
  • Per uur
  • 15 dagen
  • Extra
  • Vergelijk
  • Kaarten
  • Dagkaart
  • Meer »
  • Info
  • Statistieken
  • Directe link
    Temp 6h Neerslag Wind  
 07:30     19:27    Daglengte: 11:57 Vandaag
07:00
15°
 
4
13:00
17°
 
7
19:00
16°
 
6
 07:32     19:24    Daglengte: 11:52 Morgen
01:00
15°
 
8
07:00
15°
 
10
warningclass
13:00
15°
3.4 mm
7
19:00
13°
 
4
 07:34     19:22    Daglengte: 11:48 Maandag 27 Sep
01:00
10°
3.0 mm
5
07:00
10°
2.7 mm
5
13:00
13°
 
8
19:00
11°
10.8 mm
6
 07:36     19:19    Daglengte: 11:43 Dinsdag 28 Sep
01:00
10°
27.8 mm
5
Locatie info
Region: Connaught
Latitude: 54.1167°N
Longitude: -9.1667°E
32 masl
Temp/Neerslag /Baro Onweer/Dauwpunt
    Temp Baro 1h Neerslag Dauwpunt Wind UV Bewolking  
 07:30     19:27    Daglengte: 11:57 Vandaag
06:00
16°
1010.7 hPa
23%
14.7°
4
Windvlaag: 6.5 m/s
86%
07:00
15°
1010.4 hPa
29%
14.6°
4
Windvlaag: 6.9 m/s
86%
08:00
16°
1010.3 hPa
30%
14.4°
5
Windvlaag: 7.4 m/s
75%
09:00
16°
1010.3 hPa
22%
14.0°
5
Windvlaag: 7.2 m/s
59%
10:00
16°
1010.2 hPa
57%
13.8°
5
Windvlaag: 7.8 m/s
62%
11:00
17°
1010.0 hPa
17%
13.6°
6
Windvlaag: 8.8 m/s
57%
12:00
17°
1009.6 hPa
15%
13.4°
7
Windvlaag: 9.5 m/s
59%
13:00
17°
1009.2 hPa
56%
13.3°
7
Windvlaag: 9.9 m/s
63%
14:00
17°
1008.8 hPa
56%
13.0°
7
Windvlaag: 10.1 m/s
61%
15:00
17°
1008.1 hPa
55%
12.8°
7
Windvlaag: 10.4 m/s
71%
16:00
17°
1007.5 hPa
55%
12.1°
7
Windvlaag: 11.7 m/s
55%
17:00
17°
1006.9 hPa
15%
11.7°
7
Windvlaag: 11.5 m/s
19%
18:00
17°
1006.3 hPa
14%
11.5°
7
Windvlaag: 11.6 m/s
19%
19:00
16°
1006.1 hPa
14%
11.5°
6
Windvlaag: 11.4 m/s
16%
20:00
16°
1005.9 hPa
14%
11.5°
6
Windvlaag: 11.7 m/s
17%
21:00
16°
1005.6 hPa
14%
11.7°
7
Windvlaag: 12.6 m/s
40%
22:00
16°
1005.1 hPa
14%
11.7°
7
Windvlaag: 12.7 m/s
18%
23:00
15°
1004.3 hPa
14%
11.8°
7
Windvlaag: 13.1 m/s
21%
 07:32     19:24    Daglengte: 11:52 Morgen
00:00
15°
1003.8 hPa
14%
11.6°
7
Windvlaag: 13.4 m/s
64%
01:00
15°
1003.0 hPa
17%
11.7°
8
Windvlaag: 13.6 m/s
60%
02:00
15°
1002.3 hPa
15%
11.7°
8
Windvlaag: 13.9 m/s
58%
03:00
15°
1001.6 hPa
14%
11.7°
8
Windvlaag: 14 m/s
52%
04:00
15°
1000.7 hPa
14%
12.1°
8
Windvlaag: 14.2 m/s
30%
05:00
15°
999.7 hPa
16%
12.3°
9
Windvlaag: 15.2 m/s
47%
06:00
15°
999.0 hPa
15%
12.5°
10
Windvlaag: 16.3 m/s
57%
07:00
15°
998.3 hPa
16%
12.8°
10
Windvlaag: 17.5 m/s
58% warningclass
08:00
16°
998.0 hPa
67%
12.4°
11
Windvlaag: 17.9 m/s
81% warningclass
09:00
15°
997.5 hPa 0.2 mm
82%
12.2°
10
Windvlaag: 17.4 m/s
81% warningclass
10:00
15°
997.8 hPa 0.9 mm
82%
12.1°
11
Windvlaag: 17.5 m/s
86% warningclass
11:00
15°
999.1 hPa 2.3 mm
82%
12.0°
8
Windvlaag: 15.5 m/s
84%
12:00
14°
999.0 hPa
31%
11.7°
5
Windvlaag: 3.1 m/s
72%
13:00
15°
999.5 hPa
67%
12.3°
7
Windvlaag: 5.4 m/s
48%
14:00
15°
1000.1 hPa
26%
12.6°
6
Windvlaag: 7.7 m/s
19%
15:00
14°
1000.5 hPa
15%
10.5°
6
Windvlaag: 7.7 m/s
24%
16:00
14°
1000.7 hPa
14%
11.4°
6
Windvlaag: 7.1 m/s
48%
17:00
14°
1000.9 hPa
14%
10.0°
5
Windvlaag: 7.6 m/s
60%
18:00
13°
1001.3 hPa
14%
9.7°
5
Windvlaag: 7.6 m/s
68%
19:00
13°
1001.3 hPa
14%
9.9°
4
Windvlaag: 7.3 m/s
21%
20:00
12°
1001.4 hPa
14%
10.0°
4
Windvlaag: 7.1 m/s
18%
21:00
12°
1001.5 hPa
14%
9.9°
4
Windvlaag: 7.5 m/s
19%
22:00
11°
1000.9 hPa
21%
8.5°
4
Windvlaag: 7.8 m/s
65%
23:00
10°
1000.6 hPa
21%
8.2°
4
Windvlaag: 7.1 m/s
70%
 07:34     19:22    Daglengte: 11:48 Maandag 27 Sep
00:00
10°
1000.6 hPa
21%
7.6°
4
Windvlaag: 7.2 m/s
67%
01:00
10°
1000.8 hPa 3.0 mm
21%
8.3°
5
Windvlaag: 7.7 m/s
79%
02:00
10°
1000.6 hPa
22%
8.6°
4
Windvlaag: 7.8 m/s
48%
03:00
10°
1000.5 hPa
21%
8.2°
5
Windvlaag: 7.5 m/s
15%
04:00
10°
1000.7 hPa
26%
8.4°
4
Windvlaag: 7.2 m/s
53%
05:00
10°
Voelt als: 7.8°
1000.8 hPa 2.7 mm
22%
8.3°
4
Windvlaag: 5.6 m/s
31%
06:00
10°
Voelt als: 7.8°
1001.3 hPa
27%
7.3°
4
Windvlaag: 4.6 m/s
70%
07:00
10°
Voelt als: 7.6°
1001.7 hPa
21%
7.9°
5
Windvlaag: 3.9 m/s
63%
08:00
10°
Voelt als: 7.6°
1002.2 hPa
21%
8.1°
4
Windvlaag: 2.4 m/s
36%
09:00
10°
1002.9 hPa
21%
8.0°
5
Windvlaag: 6 m/s
79%
10:00
11°
1003.4 hPa
27%
8.6°
6
Windvlaag: 5.9 m/s
59%
11:00
12°
1004.1 hPa
25%
7.8°
7
Windvlaag: 6.4 m/s
69%
12:00
12°
1005.0 hPa
36%
9.3°
8
Windvlaag: 9.3 m/s
67%
13:00
13°
1005.7 hPa
45%
8.2°
8
Windvlaag: 11.1 m/s
40%
14:00
13°
1005.7 hPa
100%
9.3°
8
Windvlaag: 9.3 m/s
78%
15:00
12°
1006.3 hPa 4.0 mm
100%
10.0°
8
Windvlaag: 9.9 m/s
77%
16:00
13°
1006.1 hPa
97%
9.5°
8
Windvlaag: 9.8 m/s
79%
17:00
13°
1006.5 hPa 6.8 mm
94%
7.5°
9
Windvlaag: 12.4 m/s
76%
18:00
12°
1006.9 hPa
46%
9.1°
7
Windvlaag: 11.3 m/s
37%
19:00
11°
1007.3 hPa
40%
8.9°
6
Windvlaag: 8.2 m/s
15%
20:00
11°
1007.6 hPa
33%
8.5°
6
Windvlaag: 8.4 m/s
12%
21:00
11°
1007.9 hPa 6.9 mm
30%
8.4°
6
Windvlaag: 9.4 m/s
28%
22:00
11°
1008.1 hPa 6.9 mm
24%
7.9°
5
Windvlaag: 9.4 m/s
28%
23:00
10°
1008.2 hPa 7.0 mm
24%
8.7°
5
Windvlaag: 9.3 m/s
26%
 07:36     19:19    Daglengte: 11:43 Dinsdag 28 Sep
00:00
10°
1008.1 hPa
24%
8.1°
6
Windvlaag: 9.1 m/s
9%
01:00
10°
Voelt als: 7.6°
1007.7 hPa 7.0 mm
22%
8.7°
5
Windvlaag: 8.6 m/s
11%
02:00
10°
Voelt als: 7.1°
1006.7 hPa 20.9 mm
100%
8.7°
5
Windvlaag: 7.9 m/s
100%
03:00
10°
Voelt als: 8.6°
1006.0 hPa 24.0 mm
100%
9.1°
2
Windvlaag: 7.6 m/s
100%
04:00
10°
Voelt als: 8.5°
1005.0 hPa 24.5 mm
100%
9.3°
3
Windvlaag: 7.8 m/s
100%
05:00
10°
Voelt als: 7.8°
1003.5 hPa 26.5 mm
100%
9.2°
4
Windvlaag: 6.8 m/s
99%
Temp/Neerslag /Baro Onweer/Dauwpunt
    Temp Baro Neerslag Dauwpunt Wind Bewolking  
 07:30     19:27    Daglengte: 11:57 Vandaag
07:00
15°
1010.4 hPa   14.6°
4
86%
10:00
16°
1010.2 hPa   13.8°
5
62%
13:00
17°
1009.2 hPa   13.3°
7
63%
16:00
17°
1007.5 hPa   12.1°
7
55%
19:00
16°
1006.1 hPa   11.5°
6
16%
22:00
16°
1005.1 hPa   11.7°
7
18%
 07:32     19:24    Daglengte: 11:52 Morgen
01:00
15°
1003.0 hPa   11.7°
8
60%
04:00
15°
1000.7 hPa   12.1°
8
30%
07:00
15°
998.3 hPa   12.8°
10
58% warningclass
10:00
15°
997.8 hPa 1.1 mm 12.1°
11
86% warningclass
13:00
15°
999.5 hPa 2.3 mm 12.3°
7
48%
16:00
14°
1000.7 hPa   11.4°
6
48%
19:00
13°
1001.3 hPa   9.9°
4
21%
22:00
11°
1000.9 hPa   8.5°
4
65%
 07:34     19:22    Daglengte: 11:48 Maandag 27 Sep
01:00
10°
1000.8 hPa 3.0 mm 8.3°
5
79%
04:00
10°
1000.7 hPa   8.4°
4
53%
07:00
10°
Voelt als: 7.6°
1001.7 hPa 2.7 mm 7.9°
5
63%
10:00
11°
1003.4 hPa   8.6°
6
59%
13:00
13°
1005.7 hPa   8.2°
8
40%
16:00
13°
1006.1 hPa 4.0 mm 9.5°
8
79%
19:00
11°
1007.3 hPa 6.8 mm 8.9°
6
15%
22:00
11°
1008.1 hPa 13.8 mm 7.9°
5
28%
 07:36     19:19    Daglengte: 11:43 Dinsdag 28 Sep
01:00
10°
Voelt als: 7.6°
1007.7 hPa 13.9 mm 8.7°
5
11%
04:00
10°
Voelt als: 8.5°
1005.0 hPa 69.4 mm 9.3°
3
100%
07:00
Voelt als: 8.0°
1002.4 hPa 89.0 mm 9.1°
2
100%
10:00
Voelt als: 6.2°
1005.5 hPa 33.8 mm 7.2°
6
1%
13:00
11°
1008.5 hPa 35.0 mm 7.8°
9
1%
16:00
12°
1012.2 hPa 35.7 mm 6.3°
8
0%
19:00
10°
Voelt als: 6.8°
1015.3 hPa 36.2 mm 5.3°
6
0%
22:00
Voelt als: 5.3°
1018.0 hPa 36.4 mm 4.6°
4
0%
 07:38     19:17    Daglengte: 11:39 Woensdag 29 Sep
01:00
Voelt als: 5.2°
1019.2 hPa 36.6 mm 5.3°
4
0%
04:00
Voelt als: 4.8°
1020.0 hPa 36.8 mm 5.3°
4
0%
07:00
Voelt als: 4.6°
1020.8 hPa 36.8 mm 5.3°
3
0%
10:00
10°
1020.4 hPa 36.8 mm 8.1°
4
1%
13:00
11°
1017.8 hPa 37.6 mm 9.6°
6
1%
16:00
14°
1012.9 hPa 41.7 mm 12.7°
9
1%
19:00
13°
1012.5 hPa 42.2 mm 11.3°
10
1%
22:00
11°
1016.3 hPa 42.2 mm 9.3°
9
1%
 07:39     19:14    Daglengte: 11:35 Donderdag 30 Sep
01:00
11°
1017.3 hPa 42.3 mm 9.0°
4
1%
04:00
11°
1017.7 hPa 42.3 mm 9.0°
2
1%
07:00
11°
1017.4 hPa 42.3 mm 9.0°
2
1%
10:00
12°
1017.2 hPa 42.4 mm 9.9°
2
1%
13:00
12°
1017.7 hPa 42.5 mm 10.5°
2
1%
16:00
14°
1017.4 hPa 42.6 mm 10.0°
2
1%
19:00
11°
1018.7 hPa 42.7 mm 9.9°
2
1%
22:00
10°
1019.0 hPa 42.7 mm 9.1°
1
1%
 07:41     19:12    Daglengte: 11:31 Vrijdag 01 Okt
01:00
1018.2 hPa 42.7 mm 7.7°
0
1%
04:00
Voelt als: 6.6°
1016.1 hPa 42.7 mm 7.1°
2
1%
07:00
Voelt als: 6.2°
1013.2 hPa 42.7 mm 7.5°
3
1%
10:00
10°
Voelt als: 8.2°
1008.3 hPa 42.9 mm 9.5°
3
1%
13:00
13°
1000.7 hPa 43.2 mm 12.4°
7
1%
16:00
13°
997.6 hPa 49.5 mm 10.8°
8
1%
19:00
12°
996.5 hPa 49.6 mm 10.0°
9
1%
22:00
12°
996.2 hPa 49.8 mm 10.1°
7
1%
 07:43     19:09    Daglengte: 11:26 Zaterdag 02 Okt
01:00
12°
995.4 hPa 49.9 mm 10.2°
4
1%
04:00
12°
995.5 hPa   9.7°
5
1%
07:00
10°
997.6 hPa 100.1 mm 8.7°
2
1%
13:00
11°
998.8 hPa 102.2 mm 8.4°
2
1%
19:00
Voelt als: 9.3°
998.7 hPa 104.2 mm 6.8°
1
1%
 07:45     19:07    Daglengte: 11:22 Zondag 03 Okt
01:00
Voelt als: 7.3°
996.2 hPa 104.7 mm 7.9°
3
1%
07:00
Voelt als: 7.6°
990.7 hPa 112.2 mm 9.1°
3
1%
13:00
985.8 hPa 129.5 mm 8.2°
0
1%
19:00
Voelt als: 6.8°
987.6 hPa 154.9 mm 8.2°
5
1%
 07:47     19:04    Daglengte: 11:17 Maandag 04 Okt
01:00
Voelt als: 7.4°
993.2 hPa 158.6 mm 7.8°
4
1%
07:00
Voelt als: 7.5°
996.3 hPa 159.7 mm 6.8°
2
1%
13:00
12°
998.4 hPa 161.2 mm 6.3°
3
1%
19:00
10°
Voelt als: 8.6°
999.4 hPa 162.4 mm 6.9°
2
1%
 07:49     19:02    Daglengte: 11:13 Dinsdag 05 Okt
01:00
11°
1007.8 hPa 0.6 mm 9.8°
3
62%
07:00
11°
1008.3 hPa 0.7 mm 9.5°
3
75%
13:00
14°
1009.8 hPa 1.0 mm 10.3°
3
67%
19:00
13°
1010.3 hPa 0.5 mm 10.4°
3
68%
 07:51     18:59    Daglengte: 11:08 Woensdag 06 Okt
01:00
11°
1012.0 hPa 0.4 mm 9.8°
2
68%
07:00
11°
1011.0 hPa 0.6 mm 9.7°
3
75%
13:00
14°
1011.3 hPa 1.2 mm 10.6°
4
79%
19:00
13°
1011.3 hPa 1.6 mm 10.1°
3
73%
 07:52     18:57    Daglengte: 11:05 Donderdag 07 Okt
01:00
11°
1012.0 hPa 0.8 mm 9.3°
4
65%
07:00
11°
1010.4 hPa 0.6 mm 9.2°
4
68%
13:00
13°
1009.7 hPa 1.5 mm 10.3°
4
79%
19:00
12°
1009.6 hPa 0.9 mm 9.9°
3
74%
 07:54     18:55    Daglengte: 11:01 Vrijdag 08 Okt
01:00
11°
1010.7 hPa 0.5 mm 9.8°
3
67%
07:00
11°
1010.5 hPa 0.5 mm 9.5°
3
68%
13:00
13°
1011.2 hPa 1.3 mm 10.0°
3
66%
19:00
12°
1011.1 hPa 1.1 mm 9.7°
3
66%
 07:56     18:52    Daglengte: 10:56 Zaterdag 09 Okt
01:00
11°
1013.1 hPa 0.9 mm 9.0°
4
64%
07:00
10°
1014.2 hPa 0.4 mm 8.4°
3
70%
13:00
13°
1016.0 hPa 0.4 mm 9.2°
4
70%
19:00
11°
1015.8 hPa 0.4 mm 9.1°
3
73%
 07:58     18:50    Daglengte: 10:52 Zondag 10 Okt
01:00
11°
1016.1 hPa 0.5 mm 8.9°
3
79%
  CAPE Lifted Index Hail Supercell Tornado SRH 3km CL BTM PRES CL TOP PRES Swiss DWD icon SMHI TS
 07:30     19:27    Daglengte: 11:57 Vandaag
06:00 4 J/kg 2.9 K 0 % 0 % 0 % 0 m²/s² 0 0 8.21 3
07:00 5 J/kg 4.3 K 0 % 0 % 0 % 0 m²/s² 0 0 7.06 3
08:00 4 J/kg 5.0 K 0 % 0 % 0 % 0 m²/s² 0 0 6.53 3
09:00 3 J/kg 5.5 K 0 % 0 % 0 % 0 m²/s² 0 0 5.92 3
10:00 5 J/kg 5.9 K 0 % 0 % 0 % 0 m²/s² 0 0 6.62 3
11:00 6 J/kg 5.9 K 0 % 0 % 0 % 0 m²/s² 0 0 7.16 3
12:00 6 J/kg 5.5 K 0 % 0 % 0 % 0 m²/s² 0 0 6.64 2
13:00 10 J/kg 5.2 K 0 % 0 % 0 % 0 m²/s² 0 0 7.03 3
14:00 13 J/kg 5.2 K 0 % 0 % 0 % 0 m²/s² 0 0 7.42 3
15:00 13 J/kg 5.3 K 0 % 0 % 0 % 0 m²/s² 0 0 8.03 3
16:00 14 J/kg 4.7 K 0 % 0 % 0 % 0 m²/s² 0 0 7.76 3
17:00 11 J/kg 4.8 K 0 % 0 % 0 % 0 m²/s² 0 0 7.68 2
18:00 8 J/kg 5.1 K 0 % 0 % 0 % 0 m²/s² 0 0 7.32 2
19:00 1 J/kg 5.1 K 0 % 0 % 0 % 0 m²/s² 0 0 7.05 1
20:00 0 J/kg 5.3 K 0 % 0 % 0 % 0 m²/s² 0 0 7.31 2
21:00 0 J/kg 5.7 K 0 % 0 % 0 % 0 m²/s² 0 0 7.77 3
22:00 0 J/kg 5.4 K 0 % 0 % 0 % 0 m²/s² 0 0 7.41 1
23:00 0 J/kg 5.3 K 0 % 0 % 0 % 0 m²/s² 0 0 7.25 3
 07:32     19:24    Daglengte: 11:52 Morgen
00:00 0 J/kg 5.8 K 0 % 0 % 0 % 0 m²/s² 0 0 7.51 3
01:00 0 J/kg 5.7 K 0 % 0 % 0 % 0 m²/s² 0 0 7.17 3
02:00 0 J/kg 5.8 K 0 % 0 % 0 % 0 m²/s² 0 0 8.68 3
03:00 0 J/kg 5.7 K 0 % 0 % 0 % 0 m²/s² 0 0 10.8 3
04:00 0 J/kg 5.3 K 0 % 0 % 0 % 0 m²/s² 0 0 12.26 3
05:00 0 J/kg 5.3 K 0 % 0 % 0 % 0 m²/s² 0 0 12.5 3
06:00 0 J/kg 5.3 K 0 % 0 % 0 % 0 m²/s² 0 0 12.5 3
07:00 0 J/kg 4.9 K 0 % 0 % 0 % 0 m²/s² 0 0 12.07 3
08:00 0 J/kg 4.4 K 0 % 0 % 0 % 0 m²/s² 0 0 6.35 3
09:00 25 J/kg 4.0 K 0 % 0 % 0 % 0 m²/s² 0 0 4.78 61
10:00 34 J/kg 3.8 K 0 % 0 % 0 % 0 m²/s² 0 0 4.01 61
11:00 14 J/kg 5.3 K 0 % 0 % 0 % 0 m²/s² 0 0 5.48 61
12:00 0 J/kg 4.9 K 0 % 0 % 0 % 0 m²/s² 0 0 5.02 3
13:00 21 J/kg 6.5 K 0 % 0 % 0 % 0 m²/s² 0 0 6.74 3
14:00 28 J/kg 7.1 K 0 % 0 % 0 % 0 m²/s² 0 0 7.4 3
15:00 14 J/kg 9.1 K 0 % 0 % 0 % 0 m²/s² 0 0 12.22 2
16:00 69 J/kg 8.8 K 0 % 0 % 0 % 0 m²/s² 0 0 11.05 3
17:00 101 J/kg 7.7 K 0 % 0 % 0 % 0 m²/s² 0 0 11.6 3
18:00 147 J/kg 5.8 K 0 % 0 % 0 % 0 m²/s² 0 0 11.8 3
19:00 204 J/kg 5.0 K 0 % 0 % 0 % 0 m²/s² 0 0 9.41 1
20:00 194 J/kg 4.6 K 0 % 0 % 0 % 0 m²/s² 0 0 9.58 0
21:00 202 J/kg 3.4 K 0 % 0 % 0 % 0 m²/s² 0 0 6.43 0
22:00 163 J/kg 2.0 K 0 % 0 % 0 % 0 m²/s² 0 0 5.03 0
23:00 145 J/kg 0.6 K 0 % 0 % 0 % 0 m²/s² 0 0 2.94 0
 07:34     19:22    Daglengte: 11:48 Maandag 27 Sep
00:00 137 J/kg -0.8 K 0 % 0 % 0 % 0 m²/s² 0 0 1.15 1
01:00 177 J/kg -1.5 K 0 % 0 % 0 % 0 m²/s² 0 0 0.39 2
02:00 304 J/kg -2.2 K 0 % 0 % 0 % 0 m²/s² 0 0 -0.37 2
03:00 359 J/kg -2.2 K 0 % 0 % 0 % 0 m²/s² 0 0 0.08 2
04:00 341 J/kg -2.2 K 0 % 0 % 0 % 0 m²/s² 0 0 0.08 2
05:00 274 J/kg -2.2 K 0 % 0 % 0 % 0 m²/s² 0 0 -0.43 1
06:00 314 J/kg -2.3 K 0 % 0 % 0 % 0 m²/s² 0 0 -1.01 3
07:00 187 J/kg -0.4 K 0 % 0 % 0 % 0 m²/s² 0 0 0.02 3
08:00 0 J/kg 1.4 K 0 % 0 % 0 % 0 m²/s² 0 0 2.57 3
09:00 0 J/kg 0.2 K 0 % 0 % 0 % 0 m²/s² 0 0 3.11 3
10:00 78 J/kg -0.5 K 0 % 0 % 0 % 0 m²/s² 0 0 0.79 3
11:00 217 J/kg -1.2 K 0 % 0 % 0 % 0 m²/s² 0 0 0.45 3
12:00 465 J/kg -2.1 K 0 % 0 % 0 % 0 m²/s² 0 0 -0.57 3
13:00 76 J/kg -0.9 K 0 % 0 % 0 % 0 m²/s² 0 0 -0.3 2
14:00 1 J/kg 1.4 K 0 % 0 % 0 % 0 m²/s² 0 0 2.72 3
15:00 12 J/kg -0.7 K 0 % 0 % 0 % 0 m²/s² 0 0 0.8 80
16:00 461 J/kg -1.4 K 0 % 0 % 0 % 0 m²/s² 0 0 0.13 3
17:00 185 J/kg 1.1 K 0 % 0 % 0 % 0 m²/s² 0 0 1.91 3
18:00 345 J/kg 0.3 K 0 % 0 % 0 % 0 m²/s² 0 0 1.83 2
19:00 279 J/kg 1.1 K 0 % 0 % 0 % 0 m²/s² 0 0 2.39 1
20:00 279 J/kg 1.0 K 0 % 0 % 0 % 0 m²/s² 0 0 2.29 1
21:00 243 J/kg 1.1 K 0 % 0 % 0 % 0 m²/s² 0 0 2.81 1
22:00 196 J/kg 0.8 K 0 % 0 % 0 % 0 m²/s² 0 0 1.97 2
23:00 197 J/kg 0.6 K 0 % 0 % 0 % 0 m²/s² 0 0 1.65 1
 07:36     19:19    Daglengte: 11:43 Dinsdag 28 Sep
00:00 0 J/kg 0.4 K 0 % 0 % 0 % 0 m²/s² 0 0 1.27 1
01:00 48 J/kg 1.1 K 0 % 0 % 0 % 0 m²/s² 0 0 1.97 2
02:00 36 J/kg 0.6 K 0 % 0 % 0 % 0 m²/s² 0 0 0.99
03:00 50 J/kg 1.6 K 0 % 0 % 0 % 0 m²/s² 0 0 1.93
04:00 86 J/kg 1.3 K 0 % 0 % 0 % 0 m²/s² 0 0 1.69
05:00 52 J/kg 2.0 K 0 % 0 % 0 % 0 m²/s² 0 0 2.33
Temp Baro Wind Neerslag
  EWN Forecast EWN WRFDA DWD ICON FMI HIRLAM MET Norway GFS
 07:30     19:27    Daglengte: 11:57 Vandaag
07:00 15.4° 1010.4 hPa 4.3 m/s 0.0 mm 14.5° 1009.5 hPa 4.8 m/s 0.0 mm 16.0° 1010.2 hPa 3.6 m/s -2.0 mm 15.4° 1010.5 hPa 4.4 m/s 0.0 mm 15.5° 1010.1 hPa 3.7 m/s
10:00 16.1° 1010.2 hPa 4.9 m/s 0.0 mm 14.9° 1009.2 hPa 6.2 m/s 0.1 mm 16.5° 1010.4 hPa 4.7 m/s 0.0 mm 16.3° 1010.4 hPa 5.0 m/s 0.0 mm 16.3° 1009.8 hPa 4.0 m/s
13:00 17.1° 1009.2 hPa 6.7 m/s 0.0 mm 16.7° 1008.1 hPa 7.2 m/s 0.1 mm 17.9° 1009.4 hPa 7.6 m/s 0.0 mm 16.9° 1009.3 hPa 6.5 m/s 0.0 mm 17.4° 1008.6 hPa 5.2 m/s
16:00 17.3° 1007.5 hPa 7.5 m/s 0.0 mm 17.4° 1006.8 hPa 7.2 m/s 0.2 mm 18.0° 1007.3 hPa 7.8 m/s 0.1 mm 17.0° 1008.3 hPa 6.3 m/s 0.0 mm 17.6° 1007.0 hPa 6.2 m/s
19:00 16.5° 1006.1 hPa 6.3 m/s 0.0 mm 15.7° 1005.1 hPa 5.6 m/s 0.2 mm 16.6° 1006.1 hPa 6.1 m/s 0.0 mm 16.4° 1007.0 hPa 6.2 m/s 0.0 mm 15.5° 1005.7 hPa 5.2 m/s
22:00 15.6° 1005.1 hPa 7.1 m/s 0.0 mm 13.9° 1003.8 hPa 6.8 m/s 0.2 mm 14.5° 1005.0 hPa 6.0 m/s 0.0 mm 15.9° 1006.4 hPa 7.1 m/s 0.0 mm 14.0° 1004.5 hPa 5.1 m/s
 07:32     19:24    Daglengte: 11:52 Morgen
01:00 15.4° 1003.0 hPa 7.5 m/s 0.0 mm 13.8° 1002.0 hPa 8.0 m/s 0.2 mm 14.7° 1003.0 hPa 7.2 m/s 0.0 mm 15.7° 1004.5 hPa 7.2 m/s 0.0 mm 14.6° 1002.8 hPa 6.4 m/s
04:00 15.1° 1000.7 hPa 8.5 m/s 0.0 mm 13.1° 999.8 hPa 8.5 m/s 0.2 mm 14.5° 1000.1 hPa 8.5 m/s 0.0 mm 15.7° 1002.5 hPa 7.8 m/s 0.0 mm 14.6° 1000.4 hPa 7.6 m/s
07:00 15.4° 998.3 hPa 10.4 m/s 0.0 mm 14.1° 997.7 hPa 9.4 m/s 0.2 mm 14.8° 997.5 hPa 10.8 m/s 0.0 mm 15.5° 1000.9 hPa 8.1 m/s 0.0 mm 14.5° 998.7 hPa 7.9 m/s
10:00 15.3° 997.8 hPa 10.9 m/s 1.1 mm 16.0° 996.3 hPa 9.6 m/s 0.3 mm 15.1° 996.2 hPa 11.7 m/s 1.7 mm 15.9° 1000.0 hPa 8.9 m/s 0.0 mm 15.4° 997.2 hPa 7.9 m/s
13:00 14.6° 999.5 hPa 6.5 m/s 2.3 mm 13.4° 998.3 hPa 5.1 m/s 19.1 mm 14.6° 999.5 hPa 6.7 m/s 0.6 mm 16.1° 998.6 hPa 8.4 m/s 0.0 mm 12.7° 998.8 hPa 1.2 m/s
16:00 14.5° 1000.7 hPa 5.8 m/s 0.0 mm 14.3° 999.1 hPa 5.6 m/s 21.4 mm 14.4° 1000.7 hPa 6.6 m/s 0.0 mm 13.3° 1000.6 hPa 3.5 m/s 0.0 mm 13.5° 999.6 hPa 3.9 m/s
19:00 13.0° 1001.3 hPa 4.2 m/s 0.0 mm 11.4° 999.4 hPa 3.5 m/s 21.4 mm 12.5° 1001.4 hPa 4.9 m/s 0.0 mm 13.1° 1001.9 hPa 1.9 m/s 0.0 mm 11.1° 1000.6 hPa 4.0 m/s
22:00 10.9° 1000.9 hPa 4.2 m/s 0.0 mm 10.3° 1000.2 hPa 4.1 m/s 21.4 mm 10.3° 1001.6 hPa 3.8 m/s 0.0 mm 8.6° 1001.6 hPa 3.5 m/s
 07:34     19:22    Daglengte: 11:48 Maandag 27 Sep
01:00 10.2° 1000.8 hPa 4.7 m/s 3.0 mm 9.8° 1000.4 hPa 5.7 m/s 22.0 mm 9.6° 1001.6 hPa 3.7 m/s 0.0 mm 7.8° 1002.1 hPa 3.5 m/s
04:00 10.0° 1000.7 hPa 4.4 m/s 0.0 mm 9.0° 1000.5 hPa 4.2 m/s 23.5 mm 10.0° 1002.0 hPa 4.5 m/s 0.0 mm 7.7° 1002.7 hPa 3.4 m/s
07:00 10.0° 1001.7 hPa 4.9 m/s 2.7 mm 9.6° 1001.5 hPa 5.1 m/s 23.9 mm 9.8° 1002.6 hPa 4.8 m/s 0.0 mm 7.3° 1003.6 hPa 3.5 m/s
10:00 11.4° 1003.4 hPa 6.1 m/s 0.0 mm 10.6° 1002.5 hPa 7.4 m/s 40.7 mm 11.3° 1004.6 hPa 6.1 m/s 0.0 mm 11.3° 1005.0 hPa 4.8 m/s
13:00 12.8° 1005.7 hPa 8.4 m/s 0.0 mm 11.1° 1006.1 hPa 8.6 m/s 41.7 mm 12.8° 1006.1 hPa 7.9 m/s 0.0 mm 12.7° 1007.1 hPa 6.8 m/s
16:00 12.6° 1006.1 hPa 7.6 m/s 4.0 mm 12.0° 1006.2 hPa 5.5 m/s 56.8 mm 12.4° 1007.7 hPa 8.8 m/s 0.3 mm 12.3° 1008.2 hPa 7.2 m/s
19:00 11.4° 1007.3 hPa 6.2 m/s 6.8 mm 11.1° 1007.3 hPa 2.9 m/s 58.8 mm 11.2° 1008.8 hPa 7.1 m/s 0.0 mm 10.3° 1009.0 hPa 5.8 m/s
22:00 10.9° 1008.1 hPa 5.4 m/s 13.8 mm 10.8° 1007.9 hPa 4.5 m/s 61.0 mm 10.2° 1010.0 hPa 5.1 m/s 0.0 mm 9.5° 1010.1 hPa 4.2 m/s
 07:36     19:19    Daglengte: 11:43 Dinsdag 28 Sep
01:00 9.9° 1007.7 hPa 4.8 m/s 13.9 mm 9.4° 1007.1 hPa 4.7 m/s 61.5 mm 9.8° 1010.1 hPa 4.6 m/s 0.0 mm 8.8° 1009.3 hPa 3.4 m/s
04:00 9.8° 1005.0 hPa 2.6 m/s 69.4 mm 9.8° 1005.0 hPa 2.6 m/s 69.4 mm 9.2° 1006.2 hPa 3.7 m/s
07:00 9.3° 1002.4 hPa 2.5 m/s 89.0 mm 9.3° 1002.4 hPa 2.5 m/s 89.0 mm 9.1° 1003.0 hPa 3.0 m/s
10:00 9.0° 1005.5 hPa 5.5 m/s 33.8 mm 9.0° 1005.5 hPa 5.5 m/s 33.8 mm
13:00 11.5° 1008.5 hPa 9.0 m/s 35.0 mm 11.5° 1008.5 hPa 9.0 m/s 35.0 mm
16:00 11.5° 1012.2 hPa 8.2 m/s 35.7 mm 11.5° 1012.2 hPa 8.2 m/s 35.7 mm
19:00 9.7° 1015.3 hPa 6.0 m/s 36.2 mm 9.7° 1015.3 hPa 6.0 m/s 36.2 mm
22:00 7.8° 1018.0 hPa 4.2 m/s 36.4 mm 7.8° 1018.0 hPa 4.2 m/s 36.4 mm
 07:38     19:17    Daglengte: 11:39 Woensdag 29 Sep
01:00 7.9° 1019.2 hPa 4.4 m/s 36.6 mm 7.9° 1019.2 hPa 4.4 m/s 36.6 mm
04:00 7.3° 1020.0 hPa 3.7 m/s 36.8 mm 7.3° 1020.0 hPa 3.7 m/s 36.8 mm
07:00 6.9° 1020.8 hPa 3.3 m/s 36.8 mm 6.9° 1020.8 hPa 3.3 m/s 36.8 mm
10:00 10.2° 1020.4 hPa 3.9 m/s 36.8 mm 10.2° 1020.4 hPa 3.9 m/s 36.8 mm
13:00 10.7° 1017.8 hPa 5.6 m/s 37.6 mm 10.7° 1017.8 hPa 5.6 m/s 37.6 mm
16:00 13.5° 1012.9 hPa 9.0 m/s 41.7 mm 13.5° 1012.9 hPa 9.0 m/s 41.7 mm
19:00 13.5° 1012.5 hPa 10.4 m/s 42.2 mm 13.5° 1012.5 hPa 10.4 m/s 42.2 mm
22:00 11.4° 1016.3 hPa 9.0 m/s 42.2 mm 11.4° 1016.3 hPa 9.0 m/s 42.2 mm
 07:39     19:14    Daglengte: 11:35 Donderdag 30 Sep
01:00 11.1° 1017.3 hPa 4.4 m/s 42.3 mm 11.1° 1017.3 hPa 4.4 m/s 42.3 mm
04:00 10.9° 1017.7 hPa 2.4 m/s 42.3 mm 10.9° 1017.7 hPa 2.4 m/s 42.3 mm
07:00 10.8° 1017.4 hPa 1.5 m/s 42.3 mm 10.8° 1017.4 hPa 1.5 m/s 42.3 mm
10:00 11.5° 1017.2 hPa 1.7 m/s 42.4 mm 11.5° 1017.2 hPa 1.7 m/s 42.4 mm
13:00 12.4° 1017.7 hPa 1.7 m/s 42.5 mm 12.4° 1017.7 hPa 1.7 m/s 42.5 mm
16:00 13.8° 1017.4 hPa 2.0 m/s 42.6 mm 13.8° 1017.4 hPa 2.0 m/s 42.6 mm
19:00 10.9° 1018.7 hPa 2.5 m/s 42.7 mm 10.9° 1018.7 hPa 2.5 m/s 42.7 mm
22:00 10.2° 1019.0 hPa 0.7 m/s 42.7 mm 10.2° 1019.0 hPa 0.7 m/s 42.7 mm
 07:41     19:12    Daglengte: 11:31 Vrijdag 01 Okt
01:00 8.5° 1018.2 hPa 0.4 m/s 42.7 mm 8.5° 1018.2 hPa 0.4 m/s 42.7 mm
04:00 7.7° 1016.1 hPa 1.9 m/s 42.7 mm 7.7° 1016.1 hPa 1.9 m/s 42.7 mm
07:00 7.8° 1013.2 hPa 2.5 m/s 42.7 mm 7.8° 1013.2 hPa 2.5 m/s 42.7 mm
10:00 9.9° 1008.3 hPa 3.3 m/s 42.9 mm 9.9° 1008.3 hPa 3.3 m/s 42.9 mm
13:00 12.7° 1000.7 hPa 6.7 m/s 43.2 mm 12.7° 1000.7 hPa 6.7 m/s 43.2 mm
16:00 13.1° 997.6 hPa 8.4 m/s 49.5 mm 13.1° 997.6 hPa 8.4 m/s 49.5 mm
19:00 11.8° 996.5 hPa 8.7 m/s 49.6 mm 11.8° 996.5 hPa 8.7 m/s 49.6 mm
22:00 11.7° 996.2 hPa 7.1 m/s 49.8 mm 11.7° 996.2 hPa 7.1 m/s 49.8 mm
 07:43     19:09    Daglengte: 11:26 Zaterdag 02 Okt
01:00 11.5° 995.4 hPa 4.5 m/s 49.9 mm 11.5° 995.4 hPa 4.5 m/s 49.9 mm
04:00 11.5° 995.5 hPa 5.1 m/s 50.0 mm 11.5° 995.5 hPa 5.1 m/s 50.0 mm
07:00 10.4° 997.6 hPa 2.5 m/s 50.1 mm 10.4° 997.6 hPa 2.5 m/s 50.1 mm
13:00 11.2° 998.8 hPa 1.8 m/s 51.6 mm 11.2° 998.8 hPa 1.8 m/s 51.6 mm
19:00 9.3° 998.7 hPa 0.7 m/s 52.2 mm 9.3° 998.7 hPa 0.7 m/s 52.2 mm
 07:45     19:07    Daglengte: 11:22 Zondag 03 Okt
01:00 8.8° 996.2 hPa 2.7 m/s 52.5 mm 8.8° 996.2 hPa 2.7 m/s 52.5 mm
07:00 9.3° 990.7 hPa 3.1 m/s 56.2 mm 9.3° 990.7 hPa 3.1 m/s 56.2 mm
13:00 9.0° 985.8 hPa 0.3 m/s 70.1 mm 9.0° 985.8 hPa 0.3 m/s 70.1 mm
19:00 9.4° 987.6 hPa 5.3 m/s 78.8 mm 9.4° 987.6 hPa 5.3 m/s 78.8 mm
 07:47     19:04    Daglengte: 11:17 Maandag 04 Okt
01:00 9.4° 993.2 hPa 3.8 m/s 79.4 mm 9.4° 993.2 hPa 3.8 m/s 79.4 mm
07:00 8.7° 996.3 hPa 2.3 m/s 80.1 mm 8.7° 996.3 hPa 2.3 m/s 80.1 mm
13:00 11.7° 998.4 hPa 2.9 m/s 80.7 mm 11.7° 998.4 hPa 2.9 m/s 80.7 mm
19:00 9.6° 999.4 hPa 2.2 m/s 81.2 mm 9.6° 999.4 hPa 2.2 m/s 81.3 mm
 07:49     19:02    Daglengte: 11:13 Dinsdag 05 Okt
01:00 11.4° 1007.8 hPa 3.2 m/s 0.6 mm
07:00 11.0° 1008.3 hPa 2.7 m/s 0.7 mm
13:00 13.8° 1009.8 hPa 2.8 m/s 1.0 mm
19:00 12.5° 1010.3 hPa 2.7 m/s 0.5 mm
 07:51     18:59    Daglengte: 11:08 Woensdag 06 Okt
01:00 11.2° 1012.0 hPa 2.5 m/s 0.4 mm
07:00 11.2° 1011.0 hPa 3.0 m/s 0.6 mm
13:00 13.8° 1011.3 hPa 3.7 m/s 1.2 mm
19:00 12.5° 1011.3 hPa 3.0 m/s 1.6 mm
 07:52     18:57    Daglengte: 11:05 Donderdag 07 Okt
01:00 11.0° 1012.0 hPa 3.7 m/s 0.8 mm
07:00 10.8° 1010.4 hPa 3.8 m/s 0.6 mm
13:00 13.5° 1009.7 hPa 3.6 m/s 1.5 mm
19:00 12.2° 1009.6 hPa 3.2 m/s 0.9 mm
 07:54     18:55    Daglengte: 11:01 Vrijdag 08 Okt
01:00 11.4° 1010.7 hPa 3.4 m/s 0.5 mm
07:00 10.9° 1010.5 hPa 2.9 m/s 0.5 mm
13:00 13.2° 1011.2 hPa 2.9 m/s 1.3 mm
19:00 12.0° 1011.1 hPa 3.2 m/s 1.1 mm
 07:56     18:52    Daglengte: 10:56 Zaterdag 09 Okt
01:00 10.8° 1013.1 hPa 3.6 m/s 0.9 mm
07:00 10.1° 1014.2 hPa 3.2 m/s 0.4 mm
13:00 13.1° 1016.0 hPa 3.8 m/s 0.4 mm
19:00 11.5° 1015.8 hPa 3.0 m/s 0.4 mm
 07:58     18:50    Daglengte: 10:52 Zondag 10 Okt
01:00 10.5° 1016.1 hPa 3.2 m/s 0.5 mm
FMI Hirlam - 7.5 km EWN WRFDA - 12 km DWD ICON - 7 km GFS - 25 km Basiskaart






























































Updatetijd (Europe/Amsterdam) Resolutie Lengte Stap
FMI Hirlam 01:45, 07:45, 13:45, 19:45 7.5 km 49h 1h
EWN WRFDA 03:45, 09:45, 15:45, 21:45 12 km 73h 1h
DWD ICON 23:45, 05:45, 11:45, 17:45 7 km 75h 1h
GFS 02:15, 08:15, 14:15, 20:15 25 km 237h 3h
30+ mm
25-30 mm
20-25 mm
15-20 mm
10-15 mm
6-10 mm
4-6 mm
2-4 mm
1-2 mm
0.5-1 mm
0.2-0.5 mm
0.1-0.2 mm
30+ mm
25-30 mm
20-25 mm
15-20 mm
10-15 mm
6-10 mm
4-6 mm
2-4 mm
1-2 mm
0.5-1 mm
0.2-0.5 mm
0.1-0.2 mm
Sneeuwval
Natte sneeuw
Hagel
Vorst
30+ mm
25-30 mm
20-25 mm
15-20 mm
10-15 mm
6-10 mm
4-6 mm
2-4 mm
1-2 mm
0.5-1 mm
0.2-0.5 mm
0.1-0.2 mm
Sneeuwval
Natte sneeuw
Hagel
Vorst
Onweer
50 mm
40 mm
30 mm
26 mm
22 mm
18 mm
14 mm
10 mm
9 mm
8 mm
7 mm
6 mm
5 mm
4.5 mm
4 mm
3.5 mm
3 mm
2.5 mm
2 mm
1.5 mm
1 mm
0.8 mm
0.6 mm
0.4 mm
0.2 mm
0.05 mm
35°
30°
25°
20°
15°
10°
-5°
-10°
-15°
-20°
-25°
-30°
-35°
33> m/s
29 m/s
25 m/s
21 m/s
17 m/s
14 m/s
11 m/s
8 m/s
5 m/s
3 m/s
0 m/s
2600 J/kg
2400 J/kg
2200 J/kg
2000 J/kg
1800 J/kg
1600 J/kg
1400 J/kg
1200 J/kg
1000 J/kg
800 J/kg
600 J/kg
400 J/kg
200 J/kg
70 dBZ
65 dBZ
60 dBZ
55 dBZ
50 dBZ
45 dBZ
40 dBZ
35 dBZ
30 dBZ
25 dBZ
20 dBZ
15 dBZ
10 dBZ
5 dBZ
-1 K
-2 K
-3 K
-4 K
-5 K
-6 K
-7 K
-8 K
-9 K
950 m²/s²
900 m²/s²
850 m²/s²
800 m²/s²
750 m²/s²
700 m²/s²
650 m²/s²
600 m²/s²
550 m²/s²
500 m²/s²
450 m²/s²
400 m²/s²
350 m²/s²
300 m²/s²
250 m²/s²
200 m²/s²
150 m²/s²
100 m²/s²
46 m/s
44 m/s
42 m/s
40 m/s
38 m/s
36 m/s
34 m/s
32 m/s
30 m/s
28 m/s
26 m/s
24 m/s
22 m/s
20 m/s
16 m/s
12 m/s
8 m/s
4 m/s
30 m/s
28 m/s
26 m/s
24 m/s
22 m/s
20 m/s
18 m/s
16 m/s
14 m/s
12 m/s
10 m/s
8 m/s
6 m/s
4 m/s
2 m/s
3.0
2.8
2.6
2.4
2.2
2.0
1.8
1.6
1.4
1.2
1.0
0.8
0.6
0.4
0.2
15
14
13
12
11
10
9
8
7
6
5
4
3
2
1
90%
80%
70%
60%
50%
40%
30%
20%
10%
42
40
38
36
34
32
30
28
26
24
22
20
18
16
14
12
90+ cm
80-90 cm
70-80 cm
60-70 cm
50-60 cm
40-50 cm
30-40 cm
20-30 cm
10-20 cm
1-10 cm
Sneeuwval
Natte sneeuw
Regen
>120 mm
115 mm
110 mm
105 mm
100 mm
95 mm
90 mm
85 mm
80 mm
75 mm
70 mm
65 mm
60 mm
55 mm
50 mm
45 mm
45 mm
40 mm
35 mm
30 mm
25 mm
20 mm
15 mm
10 mm
5 mm
0.1 mm
960 hPa
880 hPa
800 hPa
720 hPa
640 hPa
560 hPa
584 gpdm
568 gpdm
552 gpdm
536 gpdm
520 gpdm
504 gpdm
488 gpdm
Extreem zwaar Noodweer Kans op onweer
15% 15% 5% 50% 15%

Dag




Kaart






35°
30°
25°
20°
15°
10°
-5°
-10°
-15°
-20°
-25°
-30°
-35°